Time,TemperatureF,DewpointF,PressureIn,WindDirection,WindDirectionDegrees,WindSpeedMPH,WindSpeedGustMPH,Humidity,HourlyPrecipIn,Conditions,Clouds,dailyrainin,SoftwareType,DateUTC
2013-06-08 00:07:00,66.3,65.0,29.65,South,191,0.0,4.0,96,0.01,,,0.00,weatherlink.com 1.10,2013-06-08 04:07:00,
2013-06-08 00:22:00,66.2,65.0,29.66,West,263,1.0,5.0,96,0.00,,,0.00,weatherlink.com 1.10,2013-06-08 04:22:00,
2013-06-08 00:37:00,66.1,65.0,29.67,WNW,295,5.0,5.0,96,0.00,,,0.00,weatherlink.com 1.10,2013-06-08 04:37:00,
2013-06-08 00:52:00,66.0,65.0,29.67,WNW,282,1.0,3.0,96,0.00,,,0.00,weatherlink.com 1.10,2013-06-08 04:52:00,
2013-06-08 01:07:00,65.8,65.0,29.68,NE,50,0.0,4.0,96,0.00,,,0.00,weatherlink.com 1.10,2013-06-08 05:07:00,
2013-06-08 01:22:00,65.6,65.0,29.68,WNW,285,0.0,2.0,96,0.00,,,0.00,weatherlink.com 1.10,2013-06-08 05:22:00,
2013-06-08 01:37:00,65.6,65.0,29.70,SSW,203,0.0,6.0,96,0.00,,,0.00,weatherlink.com 1.10,2013-06-08 05:37:00,
2013-06-08 01:52:00,65.6,65.0,29.71,ENE,63,0.0,3.0,96,0.00,,,0.00,weatherlink.com 1.10,2013-06-08 05:52:00,
2013-06-08 02:07:00,65.6,65.0,29.71,NW,304,1.0,3.0,96,0.00,,,0.00,weatherlink.com 1.10,2013-06-08 06:07:00,
2013-06-08 02:22:00,65.5,64.0,29.72,WSW,242,0.0,2.0,96,0.00,,,0.00,weatherlink.com 1.10,2013-06-08 06:22:00,
2013-06-08 02:37:00,65.4,64.0,29.73,West,266,1.0,2.0,96,0.00,,,0.00,weatherlink.com 1.10,2013-06-08 06:37:00,
2013-06-08 02:52:00,65.3,64.0,29.73,SW,224,1.0,1.0,96,0.00,,,0.00,weatherlink.com 1.10,2013-06-08 06:52:00,
2013-06-08 03:07:00,65.2,64.0,29.74,NNW,329,0.0,1.0,96,0.00,,,0.00,weatherlink.com 1.10,2013-06-08 07:07:00,
2013-06-08 03:22:00,65.1,64.0,29.75,NNE,30,0.0,0.0,96,0.00,,,0.00,weatherlink.com 1.10,2013-06-08 07:22:00,
2013-06-08 03:37:00,64.9,64.0,29.75,SSW,212,0.0,1.0,96,0.00,,,0.00,weatherlink.com 1.10,2013-06-08 07:37:00,
2013-06-08 03:52:00,64.7,64.0,29.75,SSW,212,0.0,1.0,96,0.00,,,0.00,weatherlink.com 1.10,2013-06-08 07:52:00,
2013-06-08 04:08:00,64.8,64.0,29.77,West,274,0.0,2.0,96,0.00,,,0.00,weatherlink.com 1.10,2013-06-08 08:08:00,
2013-06-08 04:23:00,64.8,64.0,29.77,North,8,0.0,1.0,96,0.00,,,0.00,weatherlink.com 1.10,2013-06-08 08:23:00,
2013-06-08 04:38:00,64.8,64.0,29.79,WSW,238,0.0,4.0,96,0.00,,,0.00,weatherlink.com 1.10,2013-06-08 08:38:00,
2013-06-08 04:53:00,64.8,64.0,29.80,SW,233,1.0,2.0,96,0.00,,,0.00,weatherlink.com 1.10,2013-06-08 08:53:00,
2013-06-08 05:08:00,64.8,64.0,29.81,SW,219,0.0,2.0,96,0.00,,,0.00,weatherlink.com 1.10,2013-06-08 09:08:00,
2013-06-08 05:23:00,64.8,64.0,29.82,NE,50,0.0,1.0,96,0.00,,,0.00,weatherlink.com 1.10,2013-06-08 09:23:00,
2013-06-08 05:38:00,64.8,64.0,29.83,WSW,239,0.0,2.0,96,0.00,,,0.00,weatherlink.com 1.10,2013-06-08 09:38:00,
2013-06-08 05:53:00,64.9,64.0,29.84,WSW,238,0.0,1.0,96,0.00,,,0.00,weatherlink.com 1.10,2013-06-08 09:53:00,
2013-06-08 06:08:00,64.9,64.0,29.84,SSW,212,0.0,3.0,96,0.00,,,0.00,weatherlink.com 1.10,2013-06-08 10:08:00,
2013-06-08 06:23:00,64.9,64.0,29.84,NW,304,0.0,1.0,96,0.00,,,0.00,weatherlink.com 1.10,2013-06-08 10:23:00,
2013-06-08 06:38:00,65.0,64.0,29.85,SW,226,0.0,1.0,96,0.00,,,0.00,weatherlink.com 1.10,2013-06-08 10:38:00,
2013-06-08 06:53:00,65.1,64.0,29.85,SW,226,0.0,0.0,96,0.00,,,0.00,weatherlink.com 1.10,2013-06-08 10:53:00,
2013-06-08 07:08:00,65.2,64.0,29.86,SW,228,0.0,1.0,96,0.00,,,0.00,weatherlink.com 1.10,2013-06-08 11:08:00,
2013-06-08 07:23:00,65.3,64.0,29.86,WNW,284,0.0,2.0,96,0.00,,,0.00,weatherlink.com 1.10,2013-06-08 11:23:00,
2013-06-08 07:38:00,65.6,64.0,29.86,WNW,283,0.0,1.0,95,0.00,,,0.00,weatherlink.com 1.10,2013-06-08 11:38:00,
2013-06-08 07:53:00,65.6,64.0,29.86,NNW,333,0.0,1.0,95,0.00,,,0.00,weatherlink.com 1.10,2013-06-08 11:53:00,
2013-06-08 08:08:00,65.8,64.0,29.87,West,281,0.0,1.0,94,0.00,,,0.00,weatherlink.com 1.10,2013-06-08 12:08:00,
2013-06-08 08:23:00,66.3,64.0,29.88,West,270,0.0,2.0,93,0.01,,,0.01,weatherlink.com 1.10,2013-06-08 12:23:00,
2013-06-08 08:38:00,66.3,65.0,29.88,West,270,0.0,1.0,94,0.02,,,0.02,weatherlink.com 1.10,2013-06-08 12:38:00,
2013-06-08 08:53:00,66.5,65.0,29.88,West,270,0.0,1.0,94,0.02,,,0.02,weatherlink.com 1.10,2013-06-08 12:53:00,
2013-06-08 09:08:00,67.3,65.0,29.89,West,278,1.0,2.0,93,0.02,,,0.02,weatherlink.com 1.10,2013-06-08 13:08:00,
2013-06-08 09:23:00,67.6,65.0,29.90,WNW,286,0.0,3.0,91,0.01,,,0.02,weatherlink.com 1.10,2013-06-08 13:23:00,
2013-06-08 09:38:00,67.6,65.0,29.91,West,266,0.0,1.0,91,0.00,,,0.02,weatherlink.com 1.10,2013-06-08 13:38:00,
2013-06-08 09:53:00,67.5,65.0,29.91,WSW,248,0.0,1.0,91,0.00,,,0.02,weatherlink.com 1.10,2013-06-08 13:53:00,
2013-06-08 10:08:00,68.2,66.0,29.91,WSW,250,0.0,1.0,91,0.00,,,0.02,weatherlink.com 1.10,2013-06-08 14:08:00,
2013-06-08 10:23:00,68.4,65.0,29.91,West,275,1.0,2.0,90,0.00,,,0.02,weatherlink.com 1.10,2013-06-08 14:23:00,
2013-06-08 10:38:00,68.4,65.0,29.93,WNW,287,0.0,1.0,89,0.00,,,0.02,weatherlink.com 1.10,2013-06-08 14:38:00,
2013-06-08 10:53:00,68.6,65.0,29.94,NNW,337,0.0,1.0,89,0.00,,,0.02,weatherlink.com 1.10,2013-06-08 14:53:00,
2013-06-08 11:08:00,69.2,65.0,29.94,WSW,239,0.0,1.0,87,0.00,,,0.02,weatherlink.com 1.10,2013-06-08 15:08:00,
2013-06-08 11:23:00,69.7,65.0,29.94,WSW,243,0.0,1.0,85,0.00,,,0.02,weatherlink.com 1.10,2013-06-08 15:23:00,
2013-06-08 11:39:00,70.0,66.0,29.94,WSW,243,0.0,0.0,88,0.00,,,0.02,weatherlink.com 1.10,2013-06-08 15:39:00,
2013-06-08 11:54:00,70.2,66.0,29.96,SW,224,0.0,2.0,86,0.00,,,0.02,weatherlink.com 1.10,2013-06-08 15:54:00,
2013-06-08 12:09:00,70.2,66.0,29.92,ESE,105,0.0,3.0,85,0.00,,,0.02,weatherlink.com 1.10,2013-06-08 16:09:00,
2013-06-08 12:24:00,69.3,66.0,29.93,East,93,3.0,4.0,88,0.01,,,0.03,weatherlink.com 1.10,2013-06-08 16:24:00,
2013-06-08 12:39:00,68.5,66.0,29.93,East,82,0.0,1.0,91,0.02,,,0.04,weatherlink.com 1.10,2013-06-08 16:39:00,
2013-06-08 12:54:00,69.1,66.0,29.94,ESE,105,1.0,2.0,91,0.02,,,0.04,weatherlink.com 1.10,2013-06-08 16:54:00,
2013-06-08 13:09:00,69.9,65.0,29.93,East,94,3.0,3.0,85,0.02,,,0.04,weatherlink.com 1.10,2013-06-08 17:09:00,
2013-06-08 13:24:00,71.2,67.0,29.93,ESE,102,2.0,4.0,86,0.01,,,0.04,weatherlink.com 1.10,2013-06-08 17:24:00,
2013-06-08 13:39:00,71.2,67.0,29.93,ESE,104,3.0,5.0,85,0.00,,,0.04,weatherlink.com 1.10,2013-06-08 17:39:00,
2013-06-08 13:54:00,71.3,67.0,29.92,ESE,108,3.0,4.0,85,0.00,,,0.04,weatherlink.com 1.10,2013-06-08 17:54:00,
2013-06-08 14:09:00,71.3,66.0,29.92,East,94,7.0,8.0,83,0.00,,,0.04,weatherlink.com 1.10,2013-06-08 18:09:00,
2013-06-08 14:24:00,72.4,68.0,29.93,East,101,5.0,6.0,85,0.00,,,0.04,weatherlink.com 1.10,2013-06-08 18:24:00,
2013-06-08 14:39:00,72.2,66.0,29.93,ESE,107,4.0,5.0,82,0.00,,,0.04,weatherlink.com 1.10,2013-06-08 18:39:00,
2013-06-08 14:54:00,72.2,67.0,29.94,ESE,109,6.0,6.0,84,0.00,,,0.04,weatherlink.com 1.10,2013-06-08 18:54:00,
2013-06-08 15:09:00,72.4,67.0,29.94,ESE,106,5.0,6.0,83,0.00,,,0.04,weatherlink.com 1.10,2013-06-08 19:09:00,
2013-06-08 15:24:00,72.3,67.0,29.93,East,99,4.0,6.0,84,0.00,,,0.04,weatherlink.com 1.10,2013-06-08 19:24:00,
2013-06-08 15:39:00,73.1,68.0,29.93,ESE,109,5.0,6.0,85,0.00,,,0.04,weatherlink.com 1.10,2013-06-08 19:39:00,
2013-06-08 15:54:00,73.2,68.0,29.94,ESE,108,3.0,7.0,84,0.00,,,0.04,weatherlink.com 1.10,2013-06-08 19:54:00,
2013-06-08 16:09:00,72.8,68.0,29.94,ESE,112,5.0,7.0,84,0.00,,,0.04,weatherlink.com 1.10,2013-06-08 20:09:00,
2013-06-08 16:24:00,73.0,68.0,29.94,East,83,5.0,7.0,84,0.00,,,0.04,weatherlink.com 1.10,2013-06-08 20:24:00,
2013-06-08 16:39:00,72.9,68.0,29.94,East,101,7.0,8.0,84,0.00,,,0.04,weatherlink.com 1.10,2013-06-08 20:39:00,
2013-06-08 16:54:00,72.7,68.0,29.95,East,85,6.0,8.0,84,0.00,,,0.04,weatherlink.com 1.10,2013-06-08 20:54:00,
2013-06-08 17:09:00,73.0,69.0,29.95,SE,129,4.0,8.0,86,0.00,,,0.04,weatherlink.com 1.10,2013-06-08 21:09:00,
2013-06-08 17:24:00,73.0,68.0,29.96,East,99,6.0,7.0,85,0.00,,,0.04,weatherlink.com 1.10,2013-06-08 21:24:00,
2013-06-08 17:39:00,72.8,68.0,29.96,East,89,4.0,7.0,86,0.00,,,0.04,weatherlink.com 1.10,2013-06-08 21:39:00,
2013-06-08 17:54:00,73.0,68.0,29.96,ESE,116,3.0,5.0,85,0.00,,,0.04,weatherlink.com 1.10,2013-06-08 21:54:00,
2013-06-08 18:09:00,72.7,68.0,29.97,ESE,105,3.0,6.0,85,0.00,,,0.04,weatherlink.com 1.10,2013-06-08 22:09:00,
2013-06-08 18:24:00,72.5,68.0,29.97,East,98,5.0,6.0,86,0.00,,,0.04,weatherlink.com 1.10,2013-06-08 22:24:00,
2013-06-08 18:39:00,72.4,68.0,29.98,ESE,112,3.0,4.0,87,0.00,,,0.04,weatherlink.com 1.10,2013-06-08 22:39:00,
2013-06-08 18:54:00,72.2,68.0,29.98,East,79,0.0,4.0,87,0.00,,,0.04,weatherlink.com 1.10,2013-06-08 22:54:00,
2013-06-08 19:09:00,72.1,68.0,29.98,East,89,4.0,5.0,88,0.00,,,0.04,weatherlink.com 1.10,2013-06-08 23:09:00,
2013-06-08 19:24:00,71.9,68.0,29.99,ENE,78,2.0,4.0,88,0.00,,,0.04,weatherlink.com 1.10,2013-06-08 23:24:00,
2013-06-08 19:39:00,71.8,69.0,30.00,East,89,1.0,3.0,89,0.00,,,0.04,weatherlink.com 1.10,2013-06-08 23:39:00,
2013-06-08 19:54:00,71.7,68.0,30.00,East,82,2.0,3.0,89,0.00,,,0.04,weatherlink.com 1.10,2013-06-08 23:54:00,
2013-06-08 20:09:00,71.6,69.0,30.00,East,91,1.0,2.0,90,0.00,,,0.04,weatherlink.com 1.10,2013-06-09 00:09:00,
2013-06-08 20:24:00,71.4,69.0,30.00,East,93,0.0,3.0,91,0.00,,,0.04,weatherlink.com 1.10,2013-06-09 00:24:00,
2013-06-08 20:39:00,71.0,68.0,30.01,East,98,0.0,3.0,91,0.00,,,0.04,weatherlink.com 1.10,2013-06-09 00:39:00,
2013-06-08 20:54:00,70.4,68.0,30.01,SW,235,0.0,1.0,92,0.00,,,0.04,weatherlink.com 1.10,2013-06-09 00:54:00,
2013-06-08 21:09:00,69.9,68.0,30.02,WSW,255,0.0,1.0,92,0.00,,,0.04,weatherlink.com 1.10,2013-06-09 01:09:00,
2013-06-08 21:24:00,69.2,67.0,30.02,WSW,255,0.0,0.0,93,0.00,,,0.04,weatherlink.com 1.10,2013-06-09 01:24:00,
2013-06-08 21:39:00,68.3,66.0,30.03,WSW,255,0.0,0.0,93,0.00,,,0.04,weatherlink.com 1.10,2013-06-09 01:39:00,
2013-06-08 21:54:00,68.1,66.0,30.04,WSW,255,0.0,0.0,94,0.00,,,0.04,weatherlink.com 1.10,2013-06-09 01:54:00,
2013-06-08 22:09:00,67.8,66.0,30.04,WSW,255,0.0,0.0,94,0.00,,,0.04,weatherlink.com 1.10,2013-06-09 02:09:00,
2013-06-08 22:24:00,67.4,66.0,30.05,WSW,255,0.0,0.0,95,0.00,,,0.04,weatherlink.com 1.10,2013-06-09 02:24:00,
2013-06-08 22:40:00,67.1,66.0,30.06,WSW,255,0.0,0.0,95,0.00,,,0.04,weatherlink.com 1.10,2013-06-09 02:40:00,
2013-06-08 22:55:00,66.9,66.0,30.06,WSW,255,0.0,0.0,95,0.00,,,0.04,weatherlink.com 1.10,2013-06-09 02:55:00,
2013-06-08 23:10:00,66.6,65.0,30.06,WSW,255,0.0,0.0,95,0.00,,,0.04,weatherlink.com 1.10,2013-06-09 03:10:00,
2013-06-08 23:25:00,66.2,65.0,30.06,WSW,255,0.0,0.0,95,0.00,,,0.04,weatherlink.com 1.10,2013-06-09 03:25:00,
2013-06-08 23:40:00,66.2,65.0,30.06,WSW,255,0.0,0.0,96,0.00,,,0.04,weatherlink.com 1.10,2013-06-09 03:40:00,
2013-06-08 23:55:00,66.1,65.0,30.06,WSW,255,0.0,0.0,96,0.00,,,0.04,weatherlink.com 1.10,2013-06-09 03:55:00,